User: anonymous   Login
Location: Unspecified
(0.0000°N, 0.0000°E)
Time: 20:56:44
(UTC+00:00)
Language:

APRIZESAT 6 - Orbit

View from above orbital plane
View from above orbital plane
View from above satellite
View from above satellite

Ground track
Ground track

The orbit data is extracted from the following two-line orbital elements,

1 37793U 11044F   18264.96279943 +.00000021 +00000-0 +11952-4 0  9994
2 37793 098.3532 049.1039 0047968 052.1126 060.5112 14.72334097381061
Epoch (UTC): 21 September 2018 23:06:25
Eccentricity: 0.0047968
inclination: 98.3532°
perigee height: 620 km
apogee height: 687 km
right ascension of ascending node: 49.1039°
argument of perigee: 52.1126°
revolutions per day: 14.72334097
mean anomaly at epoch: 60.5112°
orbit number at epoch: 38106

The dashed part of the orbit path shows where the satellite is in the earth's shadow,  

DLR